| time (UTC) | temp F | wind direction | speed knots | gust knots | rain 1hr in | rain 24hr in | rain mn in | humidity % | barometer mb |
| 20260504192007 | 61 | 153 | 3.5 | 5.2 | 0.00 | 0.02 | 0.01 | 79 | 1003.8 |
| 20260504191307 | 61 | 266 | 3.5 | 5.2 | 0.00 | 0.02 | 0.01 | 78 | 1003.9 |
| 20260504190607 | 61 | 275 | 2.6 | 5.2 | 0.00 | 0.02 | 0.01 | 78 | 1003.8 |
| 20260504185907 | 61 | 252 | 0.0 | 3.5 | 0.00 | 0.02 | 0.01 | 78 | 1003.6 |
| 20260504185207 | 61 | 230 | 0.9 | 3.5 | 0.00 | 0.02 | 0.01 | 78 | 1003.6 |
| 20260504184507 | 61 | 303 | 0.9 | 1.7 | 0.00 | 0.02 | 0.01 | 78 | 1003.5 |
| 20260504183807 | 61 | 270 | 0.0 | 1.7 | 0.00 | 0.02 | 0.01 | 77 | 1003.4 |
| 20260504183107 | 62 | 0 | 0.0 | 0.0 | 0.00 | 0.02 | 0.01 | 76 | 1003.5 |
| 20260504182407 | 62 | 0 | 0.0 | 0.0 | 0.00 | 0.02 | 0.01 | 75 | 1003.5 |
| 20260504181707 | 62 | 0 | 0.0 | 0.0 | 0.00 | 0.02 | 0.01 | 74 | 1003.3 |
| 20260504181007 | 63 | 225 | 0.0 | 1.7 | 0.00 | 0.02 | 0.01 | 74 | 1003.2 |
| 20260504180307 | 63 | 245 | 0.9 | 1.7 | 0.00 | 0.02 | 0.01 | 74 | 1003.2 |
| 20260504175607 | 64 | 225 | 0.0 | 1.7 | 0.00 | 0.02 | 0.01 | 71 | 1002.7 |
| 20260504174907 | 64 | 0 | 0.0 | 0.0 | 0.00 | 0.02 | 0.01 | 71 | 1002.9 |
| 20260504174207 | 64 | 225 | 0.0 | 0.9 | 0.00 | 0.02 | 0.01 | 70 | 1003.1 |
| 20260504173507 | 64 | 225 | 0.0 | 0.9 | 0.00 | 0.02 | 0.01 | 70 | 1003.1 |
| 20260504172807 | 64 | 210 | 0.9 | 2.6 | 0.00 | 0.02 | 0.01 | 69 | 1003.2 |
| 20260504172107 | 65 | 198 | 1.7 | 2.6 | 0.00 | 0.02 | 0.01 | 67 | 1003.2 |
| 20260504171407 | 66 | 198 | 0.9 | 2.6 | 0.00 | 0.02 | 0.01 | 65 | 1003.1 |
| 20260504170707 | 66 | 0 | 0.0 | 0.0 | 0.00 | 0.02 | 0.01 | 66 | 1003.1 |
| 20260504160407 | 70 | 104 | 3.5 | 4.3 | 0.00 | 0.02 | 0.01 | 60 | 1003.3 |
| 20260504150808 | 64 | 270 | 0.0 | 0.9 | 0.01 | 0.02 | 0.01 | 71 | 1003.6 |
| 20260504150108 | 64 | 225 | 0.0 | 0.9 | 0.01 | 0.02 | 0.01 | 70 | 1003.6 |
| 20260504141208 | 65 | 225 | 0.9 | 2.6 | 0.00 | 0.01 | 0.00 | 64 | 1004.0 |
| 20260504140508 | 65 | 207 | 0.0 | 1.7 | 0.00 | 0.01 | 0.00 | 66 | 1003.9 |
| 20260504130208 | 67 | 197 | 2.6 | 4.3 | 0.00 | 0.01 | 0.00 | 66 | 1004.1 |
| 20260504110309 | 70 | 225 | 0.0 | 1.7 | 0.00 | 0.01 | 0.00 | 63 | 1004.1 |
| 20260504081509 | 66 | 270 | 0.0 | 1.7 | 0.00 | 0.01 | 0.00 | 67 | 1004.5 |
| 20260504080809 | 66 | 292 | 0.0 | 1.7 | 0.00 | 0.01 | 0.00 | 67 | 1004.4 |
| 20260504080114 | 67 | 0 | 0.0 | 0.0 | 0.00 | 0.01 | 0.00 | 65 | 1004.3 |